EN

Hourly Weather Alpoyeca

Today, 24 January, Sunday

Time Temperature Precipitation Wind Pressure Humidity
00:00 +22°C° 0 mm 1 mps 675 mmHg 78%
01:00 +22°C° 0 mm 1 mps 675 mmHg 78%
02:00 +21°C° 0 mm 1 mps 675 mmHg 78%
03:00 +21°C° 0 mm 1 mps 675 mmHg 78%
04:00 +21°C° 0 mm 1 mps 675 mmHg 77%
05:00 +21°C° 0 mm 1 mps 675 mmHg 76%
06:00 +23°C° 0 mm 1 mps 676 mmHg 71%
07:00 +24°C° 0 mm 1 mps 676 mmHg 66%
08:00 +23°C° 0 mm 0 mps 677 mmHg 60%
09:00 +26°C° 0 mm 0 mps 677 mmHg 52%
10:00 +29°C° 0 mm 0 mps 678 mmHg 44%
11:00 +31°C° 0 mm 0 mps 678 mmHg 35%
12:00 +33°C° 0 mm 1 mps 677 mmHg 34%
13:00 +33°C° 0 mm 1 mps 676 mmHg 33%
14:00 +34°C° 0 mm 2 mps 676 mmHg 31%
15:00 +31°C° 0 mm 2 mps 675 mmHg 39%
16:00 +29°C° 0 mm 2 mps 675 mmHg 47%
17:00 +27°C° 0 mm 2 mps 675 mmHg 55%
18:00 +26°C° 0 mm 2 mps 675 mmHg 62%
19:00 +24°C° 0 mm 2 mps 675 mmHg 69%
20:00 +23°C° 0 mm 2 mps 676 mmHg 76%
21:00 +21°C° 0 mm 2 mps 675 mmHg 77%
22:00 +21°C° 0 mm 2 mps 675 mmHg 78%
23:00 +21°C° 0 mm 1 mps 675 mmHg 78%

Tomorrow, 25 January, Monday

Time Temperature Precipitation Wind Pressure Humidity
00:00 +21°C° 0 mm 1 mps 675 mmHg 77%
01:00 +21°C° 0 mm 1 mps 675 mmHg 76%
02:00 +21°C° 0 mm 1 mps 675 mmHg 75%
03:00 +20°C° 0 mm 1 mps 675 mmHg 73%
04:00 +20°C° 0 mm 1 mps 675 mmHg 71%
05:00 +20°C° 0 mm 1 mps 675 mmHg 70%
06:00 +22°C° 0 mm 1 mps 675 mmHg 63%
07:00 +23°C° 0 mm 1 mps 676 mmHg 56%
08:00 +23°C° 0 mm 0 mps 677 mmHg 50%
09:00 +25°C° 0 mm 0 mps 677 mmHg 43%
10:00 +28°C° 0 mm 0 mps 677 mmHg 37%
11:00 +31°C° 0 mm 0 mps 677 mmHg 30%
12:00 +33°C° 0 mm 1 mps 677 mmHg 29%
13:00 +33°C° 0 mm 1 mps 676 mmHg 28%
14:00 +33°C° 0 mm 1 mps 675 mmHg 28%
15:00 +31°C° 0 mm 2 mps 675 mmHg 34%
16:00 +29°C° 0 mm 2 mps 675 mmHg 40%
17:00 +28°C° 0 mm 3 mps 674 mmHg 46%
18:00 +26°C° 0 mm 2 mps 675 mmHg 53%
19:00 +24°C° 0 mm 2 mps 675 mmHg 60%
20:00 +23°C° 0 mm 2 mps 675 mmHg 68%
21:00 +21°C° 0 mm 2 mps 675 mmHg 70%
22:00 +21°C° 0 mm 2 mps 675 mmHg 73%
23:00 +20°C° 0 mm 2 mps 675 mmHg 76%

Day after tomorrow, 26 January, Tuesday

Time Temperature Precipitation Wind Pressure Humidity
00:00 +21°C° 0 mm 1 mps 675 mmHg 75%
01:00 +21°C° 0 mm 1 mps 675 mmHg 74%
02:00 +20°C° 0 mm 1 mps 675 mmHg 72%
03:00 +20°C° 0 mm 1 mps 675 mmHg 70%
04:00 +20°C° 0 mm 1 mps 675 mmHg 68%
05:00 +19°C° 0 mm 1 mps 674 mmHg 66%
06:00 +21°C° 0 mm 1 mps 675 mmHg 60%
07:00 +23°C° 0 mm 1 mps 676 mmHg 53%
08:00 +23°C° 0 mm 0 mps 677 mmHg 46%
09:00 +25°C° 0 mm 0 mps 677 mmHg 41%
10:00 +28°C° 0 mm 0 mps 677 mmHg 35%
11:00 +31°C° 0 mm 0 mps 678 mmHg 30%
12:00 +33°C° 0 mm 1 mps 677 mmHg 29%
13:00 +33°C° 0 mm 1 mps 676 mmHg 29%
14:00 +34°C° 0 mm 2 mps 675 mmHg 29%
15:00 +31°C° 0 mm 2 mps 675 mmHg 34%
16:00 +29°C° 0 mm 2 mps 675 mmHg 40%
17:00 +28°C° 0 mm 2 mps 675 mmHg 46%
18:00 +26°C° 0 mm 2 mps 675 mmHg 52%
19:00 +24°C° 0 mm 2 mps 675 mmHg 58%
20:00 +23°C° 0 mm 2 mps 676 mmHg 64%
21:00 +21°C° 0 mm 2 mps 676 mmHg 67%
22:00 +21°C° 0 mm 2 mps 676 mmHg 69%
23:00 +20°C° 0 mm 2 mps 676 mmHg 71%

27 January, Wednesday

Time Temperature Precipitation Wind Pressure Humidity
00:00 +21°C° 0 mm 1 mps 675 mmHg 72%
01:00 +21°C° 0 mm 1 mps 675 mmHg 73%
02:00 +20°C° 0 mm 1 mps 675 mmHg 74%
03:00 +20°C° 0 mm 1 mps 675 mmHg 74%
04:00 +20°C° 0 mm 1 mps 675 mmHg 74%
05:00 +20°C° 0 mm 1 mps 675 mmHg 74%
06:00 +22°C° 0 mm 1 mps 676 mmHg 67%
07:00 +21°C° 0 mm 0 mps 677 mmHg 61%
08:00 +23°C° 0 mm 0 mps 678 mmHg 54%
09:00 +26°C° 0 mm 0 mps 678 mmHg 47%
10:00 +28°C° 0 mm 0 mps 678 mmHg 40%
11:00 +33°C° 0 mm 1 mps 678 mmHg 33%
12:00 +34°C° 0 mm 1 mps 678 mmHg 31%
13:00 +32°C° 0 mm 0 mps 677 mmHg 29%
14:00 +33°C° 0 mm 0 mps 676 mmHg 27%
15:00 +33°C° 0 mm 1 mps 676 mmHg 32%
16:00 +31°C° 0 mm 1 mps 676 mmHg 37%
17:00 +30°C° 0 mm 1 mps 676 mmHg 42%
18:00 +28°C° 0 mm 1 mps 676 mmHg 50%
19:00 +26°C° 0 mm 1 mps 676 mmHg 58%
20:00 +24°C° 0 mm 1 mps 677 mmHg 67%
21:00 +23°C° 0 mm 1 mps 677 mmHg 69%
22:00 +23°C° 0 mm 1 mps 677 mmHg 71%
23:00 +22°C° 0 mm 1 mps 677 mmHg 74%

28 January, Thursday

Time Temperature Precipitation Wind Pressure Humidity
00:00 +22°C° 0 mm 1 mps 677 mmHg 74%
01:00 +20°C° 0 mm 0 mps 677 mmHg 75%
02:00 +20°C° 0 mm 0 mps 677 mmHg 76%
03:00 +19°C° 0 mm 0 mps 677 mmHg 78%
04:00 +19°C° 0 mm 0 mps 677 mmHg 80%
05:00 +18°C° 0 mm 0 mps 677 mmHg 82%
06:00 +22°C° 0 mm 1 mps 677 mmHg 77%
07:00 +23°C° 0 mm 1 mps 678 mmHg 71%
08:00 +24°C° 0 mm 1 mps 679 mmHg 66%
09:00 +26°C° 0 mm 2 mps 679 mmHg 57%
10:00 +28°C° 0 mm 2 mps 679 mmHg 48%
11:00 +30°C° 0 mm 3 mps 679 mmHg 39%

29 January, Friday

Time Temperature Precipitation Wind Pressure Humidity
Show more